Location: *
(51.0333°S, 178.4667°E)
Time: 05:18:22
(UTC+00:00)

Cosmos 1420 Rocket - Pass Details

Date: 15 November 2019
Orbit: 755 x 780 km, 74.0° (Epoch: 10 December)

Event Time Altitude Azimuth Distance (km) Brightness Sun altitude
Exits shadow 10:28:01 18° 330° (NNW) 1,823 5.6 -18.2°
Maximum altitude 10:31:59 79° 245° (WSW) 803 4.1 -18.4°
Drops below altitude 10° 10:37:22 10° 157° (SSE) 2,361 7.2 -18.7°
Sets 10:39:48 0° 155° (SSE) 3,298 8.0 -18.8°
